Total_Precipitation_Accumulation
0.00 0.01 0.03 0.03 0.03 0.05 0.05 0.06 0.10 0.17 0.18 0.24 0.37 0.50 0.72 0.88 1.11 1.26 1.29 1.26 1.33 1.55 1.86 2.16 2.54 2.89 3.09 3.25 3.36 3.67 3.89 3.60 3.10 2.67 2.17 1.95 1.86 1.68 1.49 1.36 1.26 1.31 1.25 1.37
0.01 0.02 0.02 0.02 0.02 0.03 0.05 0.07 0.13 0.16 0.16 0.21 0.36 0.65 0.82 0.90 0.93 1.00 1.11 1.06 1.09 1.29 1.39 1.48 1.70 2.03 2.12 2.34 2.65 3.03 3.27 3.11 2.58 2.33 2.11 1.96 1.87 1.74 1.68 1.54 1.46 1.31 1.28 1.33
0.01 0.02 0.02 0.02 0.02 0.03 0.06 0.07 0.09 0.12 0.13 0.22 0.38 0.90 1.01 0.90 0.81 0.71 0.82 0.87 0.84 0.92 1.02 1.02 1.10 1.27 1.58 2.05 2.21 2.26 2.52 2.72 2.46 2.32 2.23 2.12 2.01 1.82 1.85 1.75 1.59 1.29 1.19 1.23
0.01 0.01 0.01 0.01 0.02 0.02 0.05 0.06 0.05 0.05 0.09 0.33 0.46 0.91 1.03 0.91 0.89 0.71 0.67 0.66 0.56 0.54 0.70 0.84 0.85 0.91 1.11 1.43 1.72 1.98 2.22 2.40 2.34 2.21 2.00 1.84 1.65 1.54 1.54 1.56 1.57 1.45 1.33 1.17
0.01 0.01 0.01 0.02 0.02 0.02 0.02 0.02 0.04 0.06 0.12 0.31 0.44 0.78 1.00 0.83 0.97 0.73 0.46 0.33 0.29 0.29 0.40 0.57 0.68 0.77 0.79 0.99 1.38 1.81 2.16 2.40 2.29 2.00 1.83 1.82 1.71 1.66 1.59 1.52 1.69 1.56 1.48 1.28
0.01 0.01 0.02 0.01 0.01 0.01 0.01 0.03 0.09 0.19 0.32 0.64 0.63 0.65 0.93 0.71 0.54 0.39 0.28 0.20 0.21 0.23 0.27 0.36 0.43 0.53 0.67 0.81 1.06 1.38 1.72 1.97 1.99 1.84 1.75 1.80 1.82 1.78 1.64 1.45 1.44 1.35 1.36 1.31
0.06 0.06 0.03 0.02 0.02 0.02 0.02 0.04 0.18 0.40 0.67 0.86 0.51 0.66 1.02 0.59 0.41 0.26 0.21 0.19 0.19 0.17 0.22 0.32 0.40 0.43 0.53 0.62 0.79 1.03 1.29 1.44 1.60 1.68 1.71 1.69 1.80 1.80 1.61 1.43 1.37 1.38 1.24 1.16
0.09 0.15 0.06 0.02 0.02 0.02 0.02 0.03 0.07 0.15 0.28 0.44 0.50 1.12 0.98 0.42 0.27 0.23 0.20 0.20 0.18 0.18 0.20 0.30 0.41 0.43 0.44 0.48 0.64 0.79 0.97 1.17 1.37 1.49 1.55 1.57 1.52 1.42 1.41 1.48 1.39 1.34 1.31 1.25
0.03 0.04 0.03 0.02 0.02 0.02 0.03 0.02 0.03 0.05 0.08 0.27 0.61 0.80 0.52 0.25 0.22 0.24 0.22 0.21 0.20 0.24 0.31 0.36 0.46 0.48 0.38 0.39 0.49 0.56 0.75 0.93 1.07 1.28 1.38 1.30 1.32 1.23 1.24 1.29 1.28 1.24 1.34 1.35
0.02 0.01 0.02 0.02 0.02 0.03 0.03 0.02 0.03 0.03 0.06 0.19 0.45 0.70 0.72 0.44 0.33 0.28 0.25 0.24 0.21 0.27 0.41 0.45 0.42 0.44 0.37 0.36 0.43 0.51 0.66 0.77 0.87 1.04 1.12 1.04 1.23 1.23 1.31 1.27 1.19 1.14 1.14 1.17
0.02 0.01 0.01 0.02 0.03 0.04 0.04 0.03 0.03 0.03 0.04 0.10 0.30 0.48 0.51 0.46 0.40 0.29 0.23 0.26 0.32 0.31 0.43 0.44 0.40 0.42 0.39 0.38 0.42 0.48 0.63 0.73 0.79 0.92 0.96 1.02 1.09 1.12 1.17 1.19 1.20 1.18 1.15 1.13
0.02 0.02 0.01 0.03 0.04 0.03 0.05 0.06 0.06 0.05 0.05 0.06 0.12 0.24 0.26 0.31 0.38 0.31 0.30 0.37 0.39 0.28 0.29 0.35 0.40 0.46 0.35 0.36 0.40 0.45 0.53 0.59 0.65 0.81 0.95 0.99 1.09 1.10 1.08 1.12 1.29 1.31 1.28 1.27
0.02 0.02 0.02 0.07 0.12 0.10 0.06 0.06 0.07 0.07 0.06 0.05 0.10 0.21 0.21 0.23 0.33 0.32 0.36 0.42 0.41 0.36 0.31 0.41 0.47 0.43 0.36 0.36 0.40 0.45 0.52 0.57 0.62 0.72 0.84 0.96 1.03 1.10 1.18 1.30 1.45 1.54 1.49 1.48
0.03 0.02 0.02 0.07 0.15 0.20 0.15 0.08 0.07 0.07 0.05 0.05 0.08 0.15 0.21 0.29 0.33 0.31 0.36 0.43 0.44 0.42 0.32 0.37 0.51 0.50 0.42 0.41 0.45 0.47 0.55 0.65 0.75 0.93 1.03 1.09 1.25 1.38 1.45 1.46 1.57 1.61 1.64 1.69
0.02 0.02 0.02 0.03 0.06 0.11 0.11 0.08 0.07 0.07 0.05 0.05 0.07 0.11 0.21 0.32 0.36 0.35 0.37 0.42 0.43 0.38 0.38 0.49 0.60 0.64 0.61 0.58 0.57 0.59 0.71 0.83 1.03 1.24 1.29 1.30 1.40 1.52 1.66 1.83 1.87 1.88 1.90 1.89
0.04 0.04 0.04 0.05 0.07 0.09 0.07 0.07 0.06 0.06 0.05 0.06 0.08 0.13 0.20 0.30 0.33 0.29 0.31 0.33 0.38 0.42 0.43 0.49 0.65 0.76 0.80 0.84 0.83 0.87 0.99 1.18 1.44 1.71 1.80 1.86 1.92 2.01 2.08 2.13 2.12 2.18 2.19 2.14
0.14 0.14 0.12 0.10 0.10 0.11 0.09 0.08 0.08 0.08 0.09 0.09 0.13 0.19 0.25 0.33 0.35 0.41 0.41 0.40 0.50 0.56 0.60 0.64 0.78 0.86 0.96 0.99 1.02 1.12 1.21 1.42 1.62 1.76 1.82 1.91 1.99 2.07 2.13 2.17 2.21 2.17 2.17 2.10
0.34 0.29 0.23 0.18 0.20 0.21 0.13 0.15 0.16 0.17 0.20 0.23 0.23 0.26 0.33 0.42 0.44 0.49 0.51 0.48 0.51 0.62 0.75 0.77 0.85 0.91 0.95 1.05 1.17 1.27 1.30 1.34 1.56 1.72 1.78 1.77 1.78 1.84 1.97 2.09 2.08 1.99 1.97 1.95
0.41 0.47 0.42 0.31 0.27 0.28 0.27 0.26 0.26 0.31 0.39 0.36 0.44 0.49 0.48 0.49 0.50 0.52 0.56 0.70 0.69 0.67 0.72 0.77 0.88 0.92 0.96 1.01 1.09 1.07 1.12 1.22 1.35 1.42 1.51 1.54 1.63 1.74 1.83 1.91 1.96 1.97 1.92 1.75
0.32 0.36 0.42 0.43 0.43 0.41 0.41 0.44 0.35 0.39 0.67 0.67 0.71 0.75 0.70 0.69 0.77 0.70 0.56 0.58 0.63 0.65 0.66 0.73 0.84 0.89 0.94 0.97 0.99 1.02 1.10 1.24 1.41 1.54 1.62 1.70 1.79 1.88 1.86 1.91 1.97 1.94 1.86 1.81
0.46 0.47 0.46 0.45 0.49 0.52 0.48 0.44 0.44 0.72 0.96 0.97 1.04 1.03 0.93 0.92 0.88 0.78 0.62 0.56 0.56 0.60 0.64 0.69 0.80 0.93 0.95 0.98 1.05 1.16 1.26 1.35 1.48 1.56 1.62 1.66 1.73 1.80 1.84 1.93 1.87 1.85 1.82 1.75
0.64 0.65 0.63 0.65 0.81 0.95 0.72 0.64 0.83 0.99 0.78 0.83 1.00 1.18 1.18 1.10 0.96 0.80 0.65 0.56 0.53 0.50 0.55 0.69 0.79 0.89 0.98 1.08 1.21 1.29 1.28 1.32 1.43 1.59 1.66 1.67 1.71 1.72 1.73 1.78 1.75 1.72 1.69 1.61
0.74 0.82 0.90 0.95 1.10 1.02 0.86 0.86 0.83 0.91 1.04 1.09 1.16 1.30 1.33 1.19 1.00 0.89 0.75 0.64 0.56 0.52 0.55 0.61 0.70 0.85 0.94 1.09 1.23 1.33 1.38 1.47 1.50 1.59 1.71 1.76 1.73 1.71 1.76 1.86 1.89 1.79 1.71 1.63
0.77 0.66 0.85 1.14 1.28 1.09 0.92 0.93 0.92 1.00 1.17 1.21 1.15 1.14 1.15 1.08 0.97 1.00 0.97 0.81 0.77 0.73 0.69 0.72 0.80 0.87 0.94 1.03 1.15 1.26 1.37 1.46 1.59 1.65 1.70 1.77 1.78 1.79 1.82 1.88 1.85 1.78 1.68 1.58
0.82 0.85 1.00 1.34 1.52 1.42 1.26 1.16 1.09 1.12 1.09 1.17 1.09 1.10 1.07 1.02 0.96 0.98 1.04 1.06 1.00 0.90 0.86 0.87 0.91 0.96 0.99 1.07 1.16 1.30 1.40 1.46 1.56 1.67 1.72 1.71 1.71 1.76 1.79 1.76 1.71 1.61 1.52 1.46
0.90 1.07 1.32 1.65 1.65 1.74 1.64 1.36 1.20 1.24 1.21 1.17 1.11 1.15 1.17 1.10 1.02 1.01 1.10 1.11 1.07 0.99 0.93 0.93 0.95 0.97 1.00 1.07 1.18 1.26 1.41 1.56 1.65 1.65 1.56 1.51 1.43 1.43 1.45 1.44 1.46 1.50 1.36 1.36